JES3861 SUMU-SABE

Flight info

Callsign JES3861
Flight time 0h 23m
Altitude 26000
Route UGIMI UGIMI8Q
Aircraft A320/M-SDE3FGHIRWY/LB1

Departure

Time 2026-05-04 04:01
Airport Carrasco General Cesáreo L. Berisso International Airport (SUMU)

Arrival

Time 2026-05-04 04:25
Airport Aeroparque Jorge Newbery (SABE)
Time Latitude Longitude Altitude Speed Heading
2026-05-04 03:41 -34.83731 -56.01980 71 ft 0 kts 145°
2026-05-04 03:54 -34.83733 -56.01979 71 ft 1 kts 144°
2026-05-04 03:54 -34.83757 -56.01963 70 ft 6 kts 168°
2026-05-04 03:54 -34.83797 -56.02000 69 ft 8 kts 232°
2026-05-04 03:55 -34.83841 -56.02072 67 ft 11 kts 253°
2026-05-04 03:55 -34.83800 -56.02141 69 ft 9 kts 326°
2026-05-04 03:55 -34.83760 -56.02187 70 ft 7 kts 279°
2026-05-04 03:55 -34.83785 -56.02237 69 ft 8 kts 204°
2026-05-04 03:56 -34.83853 -56.02246 67 ft 11 kts 182°
2026-05-04 03:56 -34.83930 -56.02263 63 ft 13 kts 211°
2026-05-04 03:56 -34.83953 -56.02370 63 ft 13 kts 271°
2026-05-04 03:56 -34.83949 -56.02483 63 ft 13 kts 274°
2026-05-04 03:57 -34.83946 -56.02589 63 ft 12 kts 270°
2026-05-04 03:57 -34.83958 -56.02693 62 ft 12 kts 248°
2026-05-04 03:57 -34.84005 -56.02789 60 ft 13 kts 248°
2026-05-04 03:57 -34.84013 -56.02900 60 ft 12 kts 271°
2026-05-04 03:58 -34.84034 -56.03119 57 ft 15 kts 248°
2026-05-04 03:58 -34.84085 -56.03239 56 ft 16 kts 243°
2026-05-04 03:58 -34.84143 -56.03376 51 ft 19 kts 240°
2026-05-04 03:59 -34.84200 -56.03505 50 ft 16 kts 243°
2026-05-04 03:59 -34.84240 -56.03601 47 ft 9 kts 243°
2026-05-04 03:59 -34.84233 -56.03678 46 ft 9 kts 318°
2026-05-04 03:59 -34.84199 -56.03673 47 ft 4 kts 49°
2026-05-04 04:00 -34.84196 -56.03667 47 ft 0 kts 53°
2026-05-04 04:00 -34.84158 -56.03605 49 ft 30 kts 53°
2026-05-04 04:00 -34.83876 -56.03147 63 ft 102 kts 53°
2026-05-04 04:00 -34.83332 -56.02251 79 ft 158 kts 54°
2026-05-04 04:01 -34.82798 -56.01064 649 ft 166 kts 81°
2026-05-04 04:01 -34.83218 -55.99787 1358 ft 174 kts 140°
2026-05-04 04:01 -34.84325 -55.99279 1918 ft 178 kts 188°
2026-05-04 04:01 -34.85407 -55.99836 2461 ft 169 kts 233°
2026-05-04 04:02 -34.85988 -56.01069 2859 ft 176 kts 262°
2026-05-04 04:02 -34.86266 -56.02595 3277 ft 194 kts 265°
2026-05-04 04:02 -34.86494 -56.04301 3666 ft 215 kts 266°
2026-05-04 04:02 -34.86727 -56.06172 4120 ft 235 kts 265°
2026-05-04 04:03 -34.86993 -56.08198 4647 ft 252 kts 264°
2026-05-04 04:03 -34.87284 -56.10334 5390 ft 260 kts 263°
2026-05-04 04:03 -34.87577 -56.12506 6298 ft 262 kts 263°
2026-05-04 04:03 -34.87883 -56.14659 7190 ft 263 kts 262°
2026-05-04 04:04 -34.88215 -56.16841 8058 ft 265 kts 262°
2026-05-04 04:04 -34.88528 -56.19080 8845 ft 270 kts 262°
2026-05-04 04:04 -34.88845 -56.21327 9630 ft 273 kts 261°
2026-05-04 04:04 -34.89170 -56.23573 10425 ft 276 kts 261°
2026-05-04 04:05 -34.89505 -56.25914 10899 ft 290 kts 261°
2026-05-04 04:05 -34.89847 -56.28404 11365 ft 303 kts 261°
2026-05-04 04:05 -34.90182 -56.30957 11896 ft 313 kts 261°
2026-05-04 04:05 -34.90518 -56.33622 12496 ft 321 kts 261°
2026-05-04 04:06 -34.90886 -56.36373 12804 ft 338 kts 262°
2026-05-04 04:06 -34.91283 -56.39237 13073 ft 353 kts 260°
2026-05-04 04:06 -34.91748 -56.42226 13382 ft 367 kts 259°
2026-05-04 04:06 -34.92220 -56.45315 13969 ft 372 kts 260°
2026-05-04 04:07 -34.92676 -56.48391 14613 ft 373 kts 260°
2026-05-04 04:07 -34.93128 -56.51503 15297 ft 374 kts 260°
2026-05-04 04:07 -34.93568 -56.54586 15961 ft 375 kts 260°
2026-05-04 04:07 -34.94010 -56.57704 16589 ft 376 kts 260°
2026-05-04 04:08 -34.94450 -56.60839 17217 ft 377 kts 260°
2026-05-04 04:08 -34.94890 -56.63996 17737 ft 378 kts 260°
2026-05-04 04:08 -34.95330 -56.67156 18003 ft 377 kts 261°
2026-05-04 04:08 -34.95770 -56.70328 18033 ft 377 kts 261°
2026-05-04 04:09 -34.96207 -56.73477 18025 ft 376 kts 261°
2026-05-04 04:09 -34.96637 -56.76580 18028 ft 375 kts 261°
2026-05-04 04:09 -34.97072 -56.79745 18042 ft 375 kts 261°
2026-05-04 04:09 -34.97509 -56.82916 18041 ft 385 kts 261°
2026-05-04 04:10 -34.97882 -56.86205 18046 ft 399 kts 264°
2026-05-04 04:10 -34.98117 -56.89568 18028 ft 403 kts 266°
2026-05-04 04:10 -34.98213 -56.92964 18043 ft 404 kts 269°
2026-05-04 04:10 -34.98131 -56.96405 18022 ft 405 kts 276°
2026-05-04 04:11 -34.97413 -56.99723 18034 ft 407 kts 285°
2026-05-04 04:11 -34.96537 -57.03008 18028 ft 407 kts 285°
2026-05-04 04:11 -34.95671 -57.06282 18029 ft 406 kts 285°
2026-05-04 04:11 -34.94828 -57.09524 18029 ft 406 kts 285°
2026-05-04 04:12 -34.93980 -57.12839 18033 ft 406 kts 285°
2026-05-04 04:12 -34.93157 -57.16089 18043 ft 407 kts 285°
2026-05-04 04:12 -34.92321 -57.19410 18034 ft 407 kts 285°
2026-05-04 04:12 -34.91501 -57.22685 18043 ft 407 kts 285°
2026-05-04 04:13 -34.90683 -57.25950 18025 ft 407 kts 285°
2026-05-04 04:13 -34.89856 -57.29256 18036 ft 407 kts 284°
2026-05-04 04:13 -34.89027 -57.32563 18037 ft 407 kts 285°
2026-05-04 04:13 -34.88203 -57.35853 18009 ft 404 kts 284°
2026-05-04 04:14 -34.87400 -57.39054 17573 ft 399 kts 285°
2026-05-04 04:14 -34.86592 -57.42283 16834 ft 395 kts 285°
2026-05-04 04:14 -34.85804 -57.45426 16147 ft 390 kts 285°
2026-05-04 04:14 -34.85017 -57.48563 15427 ft 388 kts 285°
2026-05-04 04:15 -34.84229 -57.51700 14625 ft 388 kts 286°
2026-05-04 04:15 -34.83450 -57.54795 13854 ft 386 kts 286°
2026-05-04 04:15 -34.82671 -57.57884 13339 ft 378 kts 286°
2026-05-04 04:15 -34.81895 -57.60893 12864 ft 370 kts 288°
2026-05-04 04:16 -34.81062 -57.63792 12429 ft 362 kts 289°
2026-05-04 04:16 -34.80217 -57.66669 11991 ft 354 kts 289°
2026-05-04 04:16 -34.79410 -57.69430 11590 ft 346 kts 289°
2026-05-04 04:16 -34.78608 -57.72190 11175 ft 340 kts 289°
2026-05-04 04:17 -34.77827 -57.74886 10681 ft 349 kts 289°
2026-05-04 04:17 -34.77014 -57.77699 10174 ft 353 kts 289°
2026-05-04 04:17 -34.76203 -57.80503 9687 ft 351 kts 289°
2026-05-04 04:17 -34.75403 -57.83271 9202 ft 349 kts 289°
2026-05-04 04:18 -34.74601 -57.86047 8698 ft 347 kts 290°
2026-05-04 04:18 -34.73807 -57.88790 8214 ft 343 kts 290°
2026-05-04 04:18 -34.73021 -57.91505 7767 ft 340 kts 290°
2026-05-04 04:18 -34.72238 -57.94206 7340 ft 338 kts 290°
2026-05-04 04:19 -34.71463 -57.96877 6901 ft 336 kts 290°
2026-05-04 04:19 -34.70680 -57.99574 6454 ft 342 kts 290°
2026-05-04 04:19 -34.69893 -58.02287 5997 ft 341 kts 290°
2026-05-04 04:19 -34.69108 -58.04990 5551 ft 339 kts 290°
2026-05-04 04:20 -34.68327 -58.07674 5092 ft 335 kts 291°
2026-05-04 04:20 -34.67555 -58.10326 4641 ft 332 kts 291°
2026-05-04 04:20 -34.66783 -58.12975 4183 ft 330 kts 291°
2026-05-04 04:20 -34.66021 -58.15587 3714 ft 327 kts 291°
2026-05-04 04:21 -34.65266 -58.18175 3245 ft 324 kts 292°
2026-05-04 04:21 -34.64522 -58.20721 2785 ft 320 kts 292°
2026-05-04 04:21 -34.63788 -58.23231 2332 ft 313 kts 292°
2026-05-04 04:21 -34.63064 -58.25701 1887 ft 306 kts 292°
2026-05-04 04:22 -34.62375 -58.28058 1695 ft 283 kts 293°
2026-05-04 04:22 -34.61751 -58.30190 1681 ft 256 kts 293°
2026-05-04 04:22 -34.61106 -58.32079 1621 ft 227 kts 301°
2026-05-04 04:22 -34.60346 -58.33695 1385 ft 214 kts 305°
2026-05-04 04:23 -34.59566 -58.35100 1109 ft 191 kts 308°
2026-05-04 04:23 -34.58838 -58.36372 961 ft 175 kts 307°
2026-05-04 04:23 -34.58184 -58.37546 633 ft 161 kts 306°
2026-05-04 04:23 -34.57587 -58.38618 415 ft 148 kts 307°
2026-05-04 04:24 -34.57025 -58.39611 202 ft 138 kts 306°
2026-05-04 04:24 -34.56495 -58.40560 98 ft 138 kts 306°
2026-05-04 04:24 -34.55960 -58.41514 31 ft 128 kts 306°
2026-05-04 04:24 -34.55551 -58.42241 28 ft 77 kts 305°
2026-05-04 04:25 -34.55397 -58.42520 28 ft 6 kts 310°
2026-05-04 04:25 -34.55369 -58.42503 28 ft 6 kts 57°
2026-05-04 04:25 -34.55354 -58.42444 28 ft 8 kts 95°
2026-05-04 04:25 -34.55371 -58.42363 26 ft 10 kts 117°
2026-05-04 04:26 -34.55402 -58.42313 26 ft 6 kts 128°
2026-05-04 04:26 -34.55432 -58.42265 27 ft 7 kts 127°
2026-05-04 04:26 -34.55469 -58.42207 26 ft 10 kts 126°
2026-05-04 04:26 -34.55513 -58.42136 25 ft 12 kts 126°
2026-05-04 04:27 -34.55561 -58.42056 25 ft 12 kts 126°
2026-05-04 04:27 -34.55615 -58.41968 25 ft 13 kts 125°
2026-05-04 04:27 -34.55669 -58.41871 25 ft 14 kts 123°
2026-05-04 04:27 -34.55724 -58.41767 26 ft 14 kts 121°
2026-05-04 04:28 -34.55770 -58.41659 27 ft 14 kts 116°
2026-05-04 04:28 -34.55766 -58.41581 27 ft 10 kts 31°
2026-05-04 04:28 -34.55705 -58.41539 27 ft 8 kts 17°
2026-05-04 04:28 -34.55662 -58.41534 28 ft 2 kts
2026-05-04 04:29 -34.55660 -58.41534 28 ft 0 kts